Location: Blue Pit
(43.1414°N, 93.2208°W)
Time: 02:32:46
(UTC+00:00)

SMAP - Pass Details

Date: 18 November 2025
Orbit: 681 x 683 km, 98.1° (Epoch: 08 December)

Event Time Altitude Azimuth Distance (km) Brightness Sun altitude
Rises 12:03:08 0° 20° (NNE) 3,053 6.5 -12.2°
Reaches altitude 10° 12:05:30 10° 27° (NNE) 2,133 5.8 -11.8°
Maximum altitude 12:09:55 42° 98° (E) 976 4.5 -11.0°
Drops below altitude 10° 12:14:18 10° 169° (S) 2,117 6.0 -10.3°
Sets 12:16:38 0° 177° (S) 3,027 6.7 -9.8°
